Погода в Сиене

Италия     43°19′06″N   11°19′53″E
темп.,
°C
ветер,
м/с
пор.,
м/с
влажн.,
%
обл.,
%
осадки,
мм/ч
давл.,
гПа
погр.,
м
20 мая, пт
пт2023:00+14зюз11865 0.0 102710
02:00+13ююз118814 0.0 102710
05:00+13ю119076 0.0 102711
08:00+17юв117259 0.0 1028128
11:00+25зюз12435 0.0 10271017
14:00+27зюз34316 0.0 10261853
17:00+26зюз54305 0.0 10251445
20:00+19юз23525 0.0 102567
21 мая, сб
сб2123:00+14зюз11595 0.0 102611
02:00+12ююз11608 0.0 102510
05:00+12ю116235 0.0 102410
08:00+17юв11545 0.0 1023122
11:00+24з253614 0.0 10211107
14:00+27зсз57355 0.0 10201550
17:00+25зсз57395 0.0 10191281
20:00+18зсз35685 0.0 101884
22 мая, вс
вс2223:00+14з11785 0.0 101911
02:00+13всв008234 0.0 101810
05:00+13з018333 0.0 101610
08:00+18с116657 0.0 1016147
11:00+24сз344515 0.0 1015871
14:00+28сз33385 0.0 10141242
17:00+28сз23385 0.0 1012960
20:00+21з11645 0.0 101221
23 мая, пн
пн2323:00+15зсз117697 0.0 101411
02:00+14ююз1179100 0.0 101311
05:00+14ю1176100 0.0 101211
08:00+18ююв1265100 0.0 1012151
11:00+24ююз2346100 0.0 1011900
14:00+29юз35315 0.0 10091690
17:00+28юз443122 0.0 10081332
20:00+21ююз226152 0.0 100829
24 мая, вт
вт2423:00+15ююз227554 0.0 101018
02:00+13юв11875 0.0 100910
05:00+12вюв118629 0.0 100911
08:00+17в22635 0.0 1010174
11:00+25ююв37375 0.0 10091190
14:00+29ююз68315 0.0 10081724
17:00+27ююз67377 0.0 10081367
20:00+21ююз48635 0.0 1010369